Track STARLINK-3795 now! 10-day predictions STARLINK-3795 is classified as:
1 52264U 22041D 22220.91667824 .00042327 00000-0 26631-2 0 9997 2 52264 53.2143 224.4229 0002333 51.1288 199.0446 15.08819761 1303